• In Russia
  • List of Countries
  • For 7 days
  • Water Temperature
  • Satellite Maps
  • Weather Map
  • Weather Widgets
  • user-avatar
    Login

    Hourly Weather Yeghegnadzor

    Today, 21 May, Tuesday

    Time Temperature Precipitation Wind Pressure Humidity
    00:00 +15°C° 0 mm 2 mps 652 mmHg 62%
    01:00 +14°C° 0 mm 2 mps 652 mmHg 64%
    02:00 +14°C° 0 mm 2 mps 652 mmHg 65%
    03:00 +14°C° 0 mm 2 mps 652 mmHg 66%
    04:00 +14°C° 0.1 mm 2 mps 653 mmHg 66%
    05:00 +15°C° 0.1 mm 2 mps 653 mmHg 66%
    06:00 +15°C° 0.1 mm 2 mps 653 mmHg 65%
    07:00 +16°C° 0.3 mm 2 mps 654 mmHg 60%
    08:00 +18°C° 0.3 mm 2 mps 655 mmHg 55%
    09:00 +19°C° 0.3 mm 2 mps 655 mmHg 49%
    10:00 +20°C° 0.7 mm 2 mps 655 mmHg 48%
    11:00 +21°C° 0.7 mm 2 mps 656 mmHg 47%
    12:00 +21°C° 0.7 mm 2 mps 656 mmHg 46%
    13:00 +21°C° 0.9 mm 2 mps 656 mmHg 46%
    14:00 +21°C° 0.9 mm 2 mps 655 mmHg 47%
    15:00 +22°C° 0.9 mm 1 mps 655 mmHg 47%
    16:00 +22°C° 0.5 mm 1 mps 655 mmHg 49%
    17:00 +21°C° 0.5 mm 1 mps 655 mmHg 51%
    18:00 +21°C° 0.5 mm 1 mps 655 mmHg 54%
    19:00 +19°C° 0.2 mm 1 mps 655 mmHg 60%
    20:00 +18°C° 0.2 mm 1 mps 655 mmHg 67%
    21:00 +15°C° 0.2 mm 2 mps 655 mmHg 74%
    22:00 +14°C° 0 mm 2 mps 655 mmHg 75%
    23:00 +14°C° 0 mm 2 mps 655 mmHg 76%

    Tomorrow, 22 May, Wednesday

    Time Temperature Precipitation Wind Pressure Humidity
    00:00 +13°C° 0 mm 2 mps 655 mmHg 78%
    01:00 +13°C° 0 mm 2 mps 655 mmHg 78%
    02:00 +12°C° 0 mm 1 mps 655 mmHg 79%
    03:00 +12°C° 0 mm 1 mps 655 mmHg 79%
    04:00 +13°C° 0 mm 1 mps 655 mmHg 75%
    05:00 +14°C° 0 mm 1 mps 655 mmHg 71%
    06:00 +15°C° 0 mm 1 mps 655 mmHg 67%
    07:00 +16°C° 0 mm 2 mps 656 mmHg 62%
    08:00 +18°C° 0 mm 2 mps 656 mmHg 57%
    09:00 +19°C° 0 mm 2 mps 656 mmHg 52%
    10:00 +21°C° 0 mm 3 mps 656 mmHg 49%
    11:00 +22°C° 0 mm 3 mps 655 mmHg 45%
    12:00 +24°C° 0 mm 3 mps 655 mmHg 42%
    13:00 +24°C° 0.2 mm 3 mps 655 mmHg 40%
    14:00 +25°C° 0.2 mm 4 mps 655 mmHg 39%
    15:00 +25°C° 0.2 mm 4 mps 654 mmHg 37%
    16:00 +24°C° 0.4 mm 3 mps 654 mmHg 42%
    17:00 +22°C° 0.4 mm 3 mps 654 mmHg 47%
    18:00 +21°C° 0.4 mm 2 mps 654 mmHg 52%
    19:00 +20°C° 0.5 mm 2 mps 654 mmHg 60%
    20:00 +18°C° 0.5 mm 2 mps 654 mmHg 67%
    21:00 +16°C° 0.5 mm 2 mps 654 mmHg 74%
    22:00 +16°C° 0 mm 2 mps 653 mmHg 74%
    23:00 +15°C° 0 mm 2 mps 653 mmHg 74%

    Day after tomorrow, 23 May, Thursday

    Time Temperature Precipitation Wind Pressure Humidity
    00:00 +14°C° 0 mm 2 mps 653 mmHg 74%
    01:00 +14°C° 0 mm 1 mps 653 mmHg 74%
    02:00 +13°C° 0 mm 1 mps 652 mmHg 73%
    03:00 +12°C° 0 mm 1 mps 652 mmHg 73%
    04:00 +13°C° 0 mm 1 mps 652 mmHg 69%
    05:00 +14°C° 0 mm 1 mps 652 mmHg 66%
    06:00 +15°C° 0 mm 1 mps 653 mmHg 62%
    07:00 +18°C° 0 mm 1 mps 653 mmHg 56%
    08:00 +18°C° 0 mm 2 mps 653 mmHg 50%
    09:00 +20°C° 0 mm 2 mps 653 mmHg 43%
    10:00 +21°C° 0 mm 3 mps 653 mmHg 40%
    11:00 +22°C° 0 mm 3 mps 653 mmHg 37%
    12:00 +23°C° 0 mm 4 mps 653 mmHg 33%
    13:00 +23°C° 0 mm 4 mps 653 mmHg 33%
    14:00 +23°C° 0 mm 5 mps 652 mmHg 32%
    15:00 +25°C° 0 mm 5 mps 652 mmHg 32%
    16:00 +23°C° 0.1 mm 5 mps 652 mmHg 35%
    17:00 +22°C° 0.1 mm 4 mps 652 mmHg 39%
    18:00 +22°C° 0.1 mm 4 mps 652 mmHg 42%
    19:00 +20°C° 0 mm 3 mps 652 mmHg 47%
    20:00 +17°C° 0 mm 2 mps 652 mmHg 52%
    21:00 +15°C° 0 mm 1 mps 652 mmHg 57%
    22:00 +15°C° 0 mm 1 mps 652 mmHg 60%
    23:00 +14°C° 0 mm 1 mps 652 mmHg 62%

    24 May, Friday

    Time Temperature Precipitation Wind Pressure Humidity
    00:00 +14°C° 0 mm 1 mps 652 mmHg 64%
    01:00 +13°C° 0 mm 1 mps 652 mmHg 66%
    02:00 +13°C° 0 mm 1 mps 652 mmHg 69%
    03:00 +12°C° 0 mm 1 mps 652 mmHg 71%
    04:00 +13°C° 0 mm 1 mps 653 mmHg 66%
    05:00 +15°C° 0 mm 1 mps 653 mmHg 61%
    06:00 +16°C° 0 mm 1 mps 654 mmHg 55%
    07:00 +18°C° 0 mm 1 mps 654 mmHg 47%
    08:00 +19°C° 0 mm 2 mps 654 mmHg 38%
    09:00 +21°C° 0 mm 2 mps 655 mmHg 30%
    10:00 +23°C° 0 mm 2 mps 655 mmHg 31%
    11:00 +24°C° 0 mm 3 mps 655 mmHg 31%
    12:00 +24°C° 0 mm 3 mps 655 mmHg 32%
    13:00 +25°C° 0 mm 3 mps 655 mmHg 33%
    14:00 +25°C° 0 mm 4 mps 655 mmHg 34%
    15:00 +26°C° 0 mm 4 mps 654 mmHg 35%
    16:00 +25°C° 0 mm 3 mps 654 mmHg 38%
    17:00 +25°C° 0 mm 3 mps 654 mmHg 40%
    18:00 +24°C° 0 mm 2 mps 654 mmHg 43%
    19:00 +21°C° 0 mm 2 mps 654 mmHg 50%
    20:00 +20°C° 0 mm 1 mps 654 mmHg 57%
    21:00 +15°C° 0 mm 0 mps 654 mmHg 64%
    22:00 +16°C° 0 mm 1 mps 654 mmHg 64%
    23:00 +16°C° 0 mm 1 mps 654 mmHg 65%

    25 May, Saturday

    Time Temperature Precipitation Wind Pressure Humidity
    00:00 +15°C° 0 mm 1 mps 654 mmHg 66%
    01:00 +15°C° 0 mm 1 mps 654 mmHg 67%
    02:00 +15°C° 0 mm 1 mps 654 mmHg 68%
    03:00 +15°C° 0 mm 1 mps 654 mmHg 69%
    04:00 +16°C° 0 mm 1 mps 654 mmHg 66%
    05:00 +17°C° 0 mm 2 mps 655 mmHg 64%
    06:00 +18°C° 0 mm 2 mps 655 mmHg 61%
    07:00 +20°C° 0 mm 2 mps 656 mmHg 54%
    08:00 +23°C° 0 mm 2 mps 656 mmHg 48%
    09:00 +25°C° 0 mm 2 mps 656 mmHg 41%
    10:00 +26°C° 0 mm 3 mps 656 mmHg 38%
    11:00 +27°C° 0 mm 3 mps 656 mmHg 35%
    12:00 +28°C° 0 mm 3 mps 656 mmHg 32%
    13:00 +29°C° 0 mm 3 mps 656 mmHg 30%
    14:00 +29°C° 0 mm 3 mps 656 mmHg 28%
    15:00 +29°C° 0 mm 3 mps 655 mmHg 26%
    16:00 +28°C° 0 mm 2 mps 655 mmHg 29%
    17:00 +28°C° 0 mm 2 mps 655 mmHg 33%
    18:00 +27°C° 0 mm 2 mps 654 mmHg 36%
    19:00 +25°C° 0.1 mm 2 mps 654 mmHg 37%
    20:00 +23°C° 0.1 mm 2 mps 654 mmHg 39%
    21:00 +20°C° 0.1 mm 2 mps 653 mmHg 41%
    22:00 +19°C° 0.1 mm 3 mps 653 mmHg 43%
    23:00 +19°C° 0.1 mm 3 mps 653 mmHg 44%

    26 May, Sunday

    Time Temperature Precipitation Wind Pressure Humidity
    00:00 +19°C° 0.1 mm 3 mps 653 mmHg 46%
    01:00 +18°C° 0 mm 3 mps 653 mmHg 47%
    02:00 +18°C° 0 mm 3 mps 652 mmHg 48%
    03:00 +18°C° 0 mm 3 mps 652 mmHg 48%
    04:00 +18°C° 0 mm 3 mps 652 mmHg 48%
    05:00 +19°C° 0 mm 3 mps 653 mmHg 47%
    06:00 +20°C° 0 mm 3 mps 653 mmHg 46%
    07:00 +22°C° 0 mm 3 mps 653 mmHg 41%
    08:00 +25°C° 0 mm 4 mps 654 mmHg 35%
    09:00 +27°C° 0 mm 4 mps 654 mmHg 29%
    10:00 +29°C° 0 mm 5 mps 654 mmHg 26%
    11:00 +30°C° 0 mm 6 mps 654 mmHg 24%
    12:00 +33°C° 0 mm 8 mps 654 mmHg 21%
    13:00 +33°C° 0 mm 8 mps 654 mmHg 20%
    14:00 +33°C° 0 mm 8 mps 654 mmHg 19%
    15:00 +33°C° 0 mm 9 mps 653 mmHg 18%
    16:00 +32°C° 0 mm 7 mps 653 mmHg 20%
    17:00 +29°C° 0 mm 5 mps 653 mmHg 23%
    18:00 +28°C° 0 mm 4 mps 653 mmHg 25%
    19:00 +25°C° 0 mm 3 mps 653 mmHg 27%
    20:00 +21°C° 0 mm 2 mps 653 mmHg 29%
    21:00 +19°C° 0 mm 1 mps 653 mmHg 31%
    22:00 +18°C° 0 mm 2 mps 653 mmHg 33%
    23:00 +18°C° 0 mm 2 mps 653 mmHg 35%
    Show more